Tracking 18032 objects as of 27-March-2017
HD Live streaming from Space Station
objects crossing your sky now

COSMOS 1481 DEB

Track COSMOS 1481 DEB now!


NORAD ID: 14192
Int'l Code: 1983-070E
Perigee: 2,171.0 km
Apogee: 38,307.5 km
Inclination: 67.5 °
Period: 720.0 minutes
Semi major axis: 26610 km
RCS: 2.531 m2 (large)
Launch date: July 8, 1983
Source: Commonwealth of Independent States (former USSR) (CIS)
Launch site: PLESETSK MISSILE AND SPACE COMPLEX (PKMTR)

Note: This is SATELLITE DEBRIS
Your satellite tracking list
Your tracking list is empty





NASA's NSSDC Master Catalog

Two Line Element Set (TLE):
1 14192U 83070E   17084.87621119 +.00000001 +00000-0 +00000-0 0  9991
2 14192 067.4863 094.5465 6789971 001.4491 007.1971 02.03131299171163
Source of the keplerian elements: AFSPC